www.pogodaiklimat.ru

Погода и климат >> Архив погоды >> Индонезия >> Меулабох


ПОГОДА в Меулабохе

  • Прогноз погоды в Меулабохе
  • Монитор погоды в Меулабохе

АРХИВ ПОГОДЫ в Меулабохе

Время (UTC), дата Ветер
(напр.,м/с)
 
Видим.   Явления Облачность Т
(С)
Тd
(С)
f
(%)
Тe
(С)
Тes
(С)
Комфортность P
(гПа)
Po
(гПа)
Тmin
(С)
Tmax
(С)
R
(мм)
R24
(мм)
S
(см)
00 18.06 С 1 7000 м 8/4 600 м
[Sc As trans Ci fib]
+23.6 +22.3 92 +31 +31 очень
душно
1010.4 1009.8 +23.3
03 18.06 СВ 1 10 км 8/4 570 м
[Sc Ac trans Ci fib]
+31.9 +23.7 62 +43 +49 опасность
перегрева
1011.2 1010.6
06 18.06 З 1 10 км 8/4 570 м
[Sc Ac trans Ci fib]
+31.9 +23.4 61 +43 +52 опасность
перегрева
1011.2 1010.6
09 18.06 ЮЗ 1 8000 м 9/3 630 м
[Sc Ac und Ci sp]
+31.5 +24.0 65 +43 +47 опасность
перегрева
1007.6 1007.0
12 18.06 С 1 9000 м 9/3 660 м
[Sc Ac und Cs]
+29.8 +27.2 86 +47 +47 опасность
перегрева
1009.1 1008.4 +32.9
15 18.06 З 1 7000 м 9/5 570 м
[Sc Ac As Ci sp]
+27.0 +25.2 90 +39 +39 очень
душно
1010.7 1010.1
18 18.06 СВ 1 6000 м 9/5 570 м
[Sc Ac As Ci sp]
+26.3 +25.1 93 +38 +38 очень
душно
1010.2 1009.6
21 18.06 СВ 1 5000 м осадки на расстоянии 9/5 500 м
[Sc Ac lent Ci fib]
+25.0 +24.5 97 +35 +35 очень
душно
1008.6 1008.0
00 19.06 СВ 1 5000 м дымка 10/6 500 м
[Sc Ac lent]
+24.8 +23.8 94 +34 +34 очень
душно
1008.7 1008.1 +23.9
03 19.06 З 2 10 км 6/3 500 м
[Sc Ac trans Ci fib]
+28.2 +24.5 80 +40 +46 очень
душно
1009.6 1009.0
06 19.06 З 2 12 км 5/3 600 м
[Cu med, cong As op Ci sp]
+31.1 +24.9 70 +45 +56 опасность
перегрева
1009.9 1009.3
09 19.06 СЗ 3 10 км 6/4 540 м
[Sc Ac As Ci sp]
+31.4 +25.4 71 +46 +50 опасность
перегрева
1007.2 1006.6
12 19.06 СЗ 1 7000 м 9/4 500 м
[Sc Ac As Ci sp]
+28.1 +22.4 71 +37 +37 очень
душно
1008.1 1007.5 +33.3
15 19.06 СВ 1 5000 м осадки на расстоянии 10/8 500 м
[Cb cap Ac lent]
+26.9 +26.4 97 +41 +41 опасность
перегрева
1010.1 1009.5
18 19.06 ЮВ 1 4000 м в посл. час дождь 10/8 450 м
[Cb cap Ac lent]
+25.7 +24.7 94 +36 +36 очень
душно
1010.5 1009.9 10
21 19.06 В 1 6000 м 9/5 500 м
[Sc Ac As Ci sp]
+24.7 +24.1 96 +34 +34 очень
душно
1009.6 1009.0
00 20.06 штиль 0 8000 м {дождь} 8/4 600 м
[Sc Ac trans Ci fib]
+24.2 +23.6 96 +33 +33 очень
душно
1010.1 1009.5 +23.9 3
03 20.06 СВ 1 10 км 6/3 600 м
[Cu med, cong Ac As Ci sp]
+28.1 +25.6 86 +41 +49 опасность
перегрева
1011.4 1010.8
06 20.06 З 5 10 км 9/5 450 м
[Cb cap Ac As Ci sp]
+27.2 +24.6 86 +39 +42 очень
душно
1011.0 1010.4
09 20.06 штиль 0 8000 м 9/5 480 м
[Cb cap Ac As Ci sp]
+28.2 +24.8 82 +40 +44 очень
душно
1009.7 1009.1
12 20.06 С 1 7000 м {дождь} 9/5 450 м
[Cb cap Ac As Ci sp]
+25.8 +24.6 93 +36 +36 очень
душно
1009.9 1009.3 +32.5 0.4
15 20.06 С 1 1000 м дождь 10/5 420 м
[Sc Ac und]
+23.8 +23.2 96 +32 +32 очень
душно
1012.1 1011.5 30
18 20.06 СВ 1 5000 м в посл. час дождь 10/4 570 м
[Sc Ac und]
+23.8 +23.2 96 +32 +32 очень
душно
1011.0 1010.4 7
21 20.06 С 1 4000 м слаб. дождь 10/6
[Cb cap Ac As]
+23.7 +23.1 96 +31 +31 очень
душно
1009.4 1008.8 7
00 21.06 С 1 6000 м в посл. час дождь 10/6
[Cb cap Ac As]
+24.0 +23.4 96 +32 +32 очень
душно
1010.3 1009.7 +23.7 1
03 21.06 ЮЗ 1 10 км 8/4 600 м
[Sc Ac trans Ci fib]
+31.7 +26.4 74 +48 +54 опасность
перегрева
1010.4 1009.8
06 21.06 ЮЗ 2 3000 м слаб. дождь 10/6
[Cb cap Ac lent]
+24.5 +23.2 92 +33 +34 очень
душно
1011.6 1011.0
09 21.06 СВ 2 6000 м слаб. дождь 9/4 360 м
[Cb cap Ac As Ci sp]
+25.7 +23.6 88 +35 +38 очень
душно
1010.0 1009.4 0.8
12 21.06 СЗ 3 3000 м слаб. дождь 10/8 300 м
[Sc As op]
+25.2 +24.7 97 +35 +35 очень
душно
1011.1 1010.5 +29.8 3
15 21.06 В 2 3000 м слаб. дождь 10/6
[Cb cap Ac As]
+23.5 +22.8 96 +31 +31 очень
душно
1012.6 1012.0 3
18 21.06 СВ 3 3000 м слаб. дождь 10/6
[Cb cap Ac As]
+23.4 +22.7 96 +33 +33 очень
душно
1011.2 1010.6 2
21 21.06 СВ 1 4000 м дымка {дождь} 10/3 600 м
[Sc Ac As Cs]
+23.3 +22.5 95 +32 +32 очень
душно
1008.8 1008.2 0.5
00 22.06 СВ 1 6000 м {дождь} 9/4 600 м
[Sc Ac und Cs]
+23.1 +23.0 99 +32 +32 очень
душно
1009.6 1009.0 +22.8 15
03 22.06 В 1 9000 м 8/4 500 м
[Sc Ac As Ci sp]
+27.6 +24.5 83 +39 +45 очень
душно
1009.7 1009.1
06 22.06 ЮЗ 3 12 км 8/4 600 м
[Sc Ac As Ci sp]
+31.3 +26.8 77 +49 +55 опасность
перегрева
1008.3 1007.8
09 22.06 ЮЗ 3 9000 м 8/3 500 м
[Cu Sc As trans Ci fib]
+31.6 +26.6 75 +49 +52 опасность
перегрева
1007.4 1006.8
12 22.06 СЗ 3 3000 м слаб. дождь 10/6
[Cb cap Ac As]
+24.5 +22.8 90 +32 +32 очень
душно
1009.9 1009.3 +33.5 1
15 22.06 ЮВ 1 6000 м {дождь} 10/8
[Cb cap Ac As]
+24.2 +23.6 96 +33 +33 очень
душно
1011.8 1011.2 0.2
18 22.06 СВ 1 2000 м слаб. дождь 10/8
[Cb cap Ac As]
+23.5 +22.9 96 +31 +31 очень
душно
1011.0 1010.4 15
21 22.06 СВ 1 6000 м в посл. час дождь 10/5 480 м
[Sc Ac As Cs]
+23.2 +22.6 96 +32 +32 очень
душно
1008.2 1007.6 1
00 23.06 Ю 4 6000 м 10/6
[Cb cap Ac As]
+26.2 +23.9 87 +36 +36 очень
душно
1009.9 1009.3 +23.1 18
03 23.06 В 2 1000 м в посл. час дождь 10/6 450 м
[Cb cap Ac lent]
+25.5 +24.8 96 +36 +37 очень
душно
1010.8 1010.2 0.0
06 23.06 В 1 10 км {дождь} 9/6 500 м
[Cu med, cong Ac As Ci sp]
+30.1 +24.3 71 +42 +48 опасность
перегрева
1008.7 1008.1 0.0
09 23.06 ЮЗ 1 8000 м 9/5 500 м
[Sc Ac As Ci sp]
+30.4 +24.6 71 +43 +46 опасность
перегрева
1007.8 1007.2
12 23.06 Ю 1 7000 м 9/4 480 м
[Cb cap Ac As Ci sp]
+28.6 +24.9 80 +41 +41 опасность
перегрева
1008.9 1008.3 +32.1
15 23.06 СВ 1 6000 м осадки на расстоянии 9/5 480 м
[Cb cap Ac As Ci sp]
+24.1 +23.3 95 +32 +32 очень
душно
1012.3 1011.7 5
18 23.06 СВ 1 6000 м {дождь} 9/5 480 м
[Cb cap Ac As Ci sp]
+23.3 +22.5 95 +32 +32 очень
душно
1011.3 1010.7 5
21 23.06 штиль 0 6000 м {дождь} 9/5 480 м
[Sc As op Ci sp]
+22.8 +22.2 96 +31 +31 очень
душно
1009.2 1008.6 0.4
00 24.06 В 1 6000 м {дождь} 10/5 540 м
[Sc As op Cs]
+23.8 +22.7 94 +31 +31 очень
душно
1010.6 1010.0 +23.0 5
03 24.06 ЮВ 1 8000 м 10/6 540 м
[Sc Ac As]
+27.8 +25.6 88 +41 +43 опасность
перегрева
1011.3 1010.7
06 24.06 ЮЗ 3 10 км 10/4 570 м
[Sc Ac und Cs]
+29.9 +26.4 82 +46 +51 опасность
перегрева
1010.5 1009.9
09 24.06 СВ 2 10 км 9/5 540 м
[Sc Ac lent Ci fib]
+27.3 +26.4 95 +42 +44 опасность
перегрева
1008.2 1007.6
12 24.06 С 1 9000 м 9/5 500 м
[Sc Ac As Ci fib]
+27.4 +25.8 91 +41 +41 опасность
перегрева
1008.6 1008.0
15 24.06 ЮЗ 4 3000 м слаб. дождь 10/8 480 м
[Cu med, cong Ac lent]
+25.5 +24.3 93 +35 +35 очень
душно
1012.4 1011.7 1
18 24.06 СВ 1 6000 м {дождь} 9/6 500 м
[Sc Ac lent Ci ing]
+24.2 +23.6 96 +33 +33 очень
душно
1011.4 1010.8 2

 

Местоположение метеостанции Меулабох (Индонезия): широта 4.25 долгота 96.12 высота над уровнем моря 90 м.

В архиве по умолчанию представлена погода в Меулабохе за последнюю неделю. Архивные данные за месяц целиком и за предыдущие месяцы, начиная с января 2011 года, Вы можете получить, выбрав интересующий диапазон дат из раскрывающегося списка и нажав кнопку "Ввод!".


*Определитесь, кто Вы:
робот инопланетянин человек

Внимание! Время в таблицах - всемирное. Для получения местного времени необходимо прибавить поправку, которая равна 7 ч.

Смотрите также архив погоды в соседних городах и на ближайших метеорологических станциях:

Погода в Банда-Ачехе (Индонезия) (161 км)
Погода в Лхоксёмаве (Индонезия) (162 км)
Погода в Сабанге (Индонезия) (201 км)
Погода в Белаване (Индонезия) (291 км)
Погода в Медан Полония (Индонезия) (294 км)
Погода в Гунунгситоли (Индонезия) (349 км)
Погода в Сиболге (Индонезия) (429 км)
Погода в Лангкави (Малайзия) (462 км)
Погода в Пенанге (Малайзия) (474 км)
Погода на Пхукете (Таиланд) (476 км)

Пояснения к столбцам:

Ветер - указаны скорость ветра в м/с - средняя за 10 мин, порывы в срок и между сроками (в фигурных скобках) и направление, откуда дует ветер: С - северный, СВ - северо-восточный, В - восточный, ЮВ - юго-восточный, Ю - южный, ЮЗ - юго-западный, З - западный, СЗ - северо-западный.
Видимость - горизонтальная дальность видимости в метрах или километрах. При видимости от 1 до 10 км при отсутствии осадков обычно наблюдается дымка, при ухудшении видимости до 1 км и менее - туман. В сухую погоду видимость может ухудшаться дымом, пылью или мглою.
Явления - указаны атмосферные явления, наблюдавшиеся в срок или в последний час перед сроком; фигурными скобками обозначены явления, наблюдавшиеся между сроками (за 1-3 часа до срока); квадратными скобками обозначены град или гололедные отложения с указанием их диаметра в мм.
Облачность - указаны через наклонную черту общая и нижняя облачность в баллах и высота нижней границы облаков в метрах; квадратными скобками обозначены формы облаков: Ci - перистые, Cs - перисто-слоистые, Cc - перисто-кучевые, Ac - высококучевые, As - высокослоистые, Sc - слоисто-кучевые, Ns - слоисто-дождевые, Cu - кучевые, Cb - кучево-дождевые. Подробнее классификацию облаков см. в Атласе облаков (PDF).
T - Температура воздуха - температура, измеренная на высоте 2 м над землей.
Td - Температура точки росы - температура, при понижении до которой содержащийся в воздухе водяной пар достигнет насыщения.
f - Относительная влажность воздуха - влажноcть воздуха, измеренная на высоте 2 м над землей.
Te - Эффективная температура - температура, которую ощущает одетый по сезону человек в тени. Характеристика душности погоды. При расчете учитывается влияние влажности воздуха и скорости ветра на теплоощущения человека.
Tes - Эффективная температура на солнце - температура, которую ощущает человек, с поправкой на солнечный нагрев. Характеристика знойности погоды. Зависит от высоты солнца над горизонтом, облачности и скорости ветра. Ночью, в пасмурную погоду, а также при ветре 12 м/с и более поправка равна нулю.
P - Атмосферное давление - приведенное к уровню моря атмосферное давление.
Po - Атмосферное давление - измеренное на уровне метеостанции атмосферное давление.
Tmin - Минимальная температура - минимум температуры воздуха на высоте 2 м над землей.
Tmax - Максимальная температура - максимум температуры воздуха на высоте 2 м над землей.
R - Количество осадков - Количество выпавших осадков за период времени, мм. При наведении курсора мыши на число - период времени, за который выпало указанное количество осадков.
R24 - Количество осадков - Количество выпавших осадков за 24 часа, мм.
S - Снежный покров - Высота снежного покрова, см. При наведении курсора мыши на число - состояние снежного покрова и степень покрытия местности в баллах.